CAPE
49 40 38 34 31 22 33 8 25 68 182 138 63 79 66 81 120 89 9 47 145 71 302 99 77 116 121 170 193 95 275 185 377 157 148 138 141 1 0 3 85 13 17 124 117 34 8 14 50 82 139 432 233 194
32 19 16 25 32 19 1 7 25 28 42 79 80 78 72 76 71 50 54 72 388 169 114 128 221 149 202 112 287 340 143 77 69 101 275 245 582 415 141 62 33 11 0 107 25 110 189 6 46 202 356 382 309 225
10 17 21 36 26 16 18 27 27 33 86 136 116 78 76 46 49 42 58 42 73 63 58 116 25 23 141 368 360 429 374 221 256 286 426 619 345 564 306 93 57 24 0 0 0 9 18 41 219 173 249 300 181 193
20 4 43 35 27 27 10 21 16 42 82 87 66 50 38 34 34 43 54 57 89 56 30 24 87 120 148 209 277 189 309 285 315 538 567 579 387 237 194 99 45 41 43 19 22 0 0 0 8 100 248 243 186 147
6 18 21 17 11 14 25 21 34 40 54 47 35 50 42 46 46 44 59 59 129 46 1 68 52 14 6 40 59 82 135 274 67 64 403 261 184 320 433 175 79 0 32 76 17 60 248 96 13 79 94 52 164 67
9 20 15 3 4 15 21 25 33 39 34 30 38 46 31 38 33 23 6 21 39 107 94 91 47 0 0 2 31 66 161 410 453 302 209 125 35 116 377 60 0 0 0 25 90 199 168 101 37 70 14 20 15 18
11 18 7 2 6 20 24 10 25 38 37 47 33 57 57 26 56 16 19 0 0 89 55 25 36 46 17 7 54 90 91 146 360 190 212 169 202 53 112 49 5 0 12 38 90 72 55 54 37 16 0 1 0 0
1 5 4 3 2 7 14 5 2 30 4 12 27 27 10 2 18 6 3 0 44 43 16 13 13 4 44 114 84 130 159 147 147 145 176 209 160 129 108 26 38 2 26 17 48 43 26 0 0 4 0 0 0 0
1 1 0 0 2 16 10 6 7 12 18 24 20 23 31 48 48 13 0 1 264 81 29 3 6 5 2 193 359 259 315 173 89 196 88 103 142 21 11 6 5 3 1 0 0 0 0 0 0 0 0 0 0 0
1 1 1 2 2 2 6 6 11 13 14 18 22 22 31 35 0 0 2 39 26 44 58 6 15 9 9 1 94 263 249 124 77 114 46 64 4 2 4 6 7 2 1 1 0 0 0 0 0 0 0 0 0 0
6 2 5 6 3 3 6 7 9 6 2 33 43 14 54 1 56 59 23 12 12 17 39 10 5 8 4 2 2 0 4 69 91 68 76 61 1 7 4 6 9 2 2 0 0 0 0 0 0 0 0 0 0 0
28 19 14 10 9 15 18 15 6 27 28 7 6 10 14 4 5 3 29 16 17 28 55 33 16 3 1 34 1 2 2 0 16 56 18 6 15 11 5 6 4 5 3 1 1 0 0 1 2 2 2 2 2 2
9 11 13 13 21 21 9 0 0 0 19 68 59 6 5 5 28 40 13 5 53 1 3 4 1 17 23 8 6 1 0 0 0 7 11 23 12 10 10 5 4 4 3 2 2 2 2 2 2 1 2 1 1 1
14 12 16 14 3 0 0 0 0 0 21 6 9 7 14 9 11 8 5 10 5 3 1 0 4 1 0 0 0 2 1 0 13 14 13 19 17 17 14 12 5 6 4 3 3 2 1 0 0 0 0 1 0 0
0 0 4 9 0 0 0 0 0 0 0 3 0 6 8 17 15 10 12 8 5 2 1 0 0 0 2 3 4 8 13 4 7 14 18 25 18 14 12 12 11 8 5 5 4 2 1 0 0 1 1 1 0 0
3 9 7 1 0 0 0 0 0 1 10 2 2 9 5 10 10 9 7 10 5 2 0 1 0 12 9 14 2 5 1 7 15 19 16 19 11 12 13 10 8 8 7 7 7 5 3 1 1 2 0 0 0 0
0 9 0 0 0 0 0 0 0 3 7 19 22 19 22 11 19 21 17 8 3 7 13 5 4 10 5 3 6 16 11 15 15 21 12 7 12 11 6 5 5 6 8 8 7 7 6 4 2 2 4 7 4 2
6 5 0 0 0 2 0 6 8 10 3 12 20 17 25 23 15 14 12 11 5 6 4 14 10 4 6 10 15 35 14 21 15 7 9 15 10 7 9 9 7 8 7 5 6 7 7 6 7 11 10 10 7 9
6 4 0 0 0 9 3 16 2 2 8 29 21 19 22 24 12 16 18 19 5 1 7 8 4 10 10 12 20 26 22 12 9 8 8 6 10 11 10 9 8 8 10 12 10 8 7 6 6 8 12 5 4 5
0 0 0 0 0 9 11 19 12 9 15 9 13 11 17 17 23 10 10 13 3 4 3 3 10 12 8 7 7 11 18 16 7 7 8 11 12 6 11 11 17 10 7 2 3 5 6 6 8 6 3 3 9 3
0 0 0 0 0 2 14 17 10 3 17 28 6 9 23 11 8 7 5 1 3 5 13 20 17 19 13 14 12 8 9 12 18 13 7 8 10 5 6 7 6 7 8 9 7 4 5 10 7 12 14 8 2 4
0 0 0 3 0 2 3 15 25 38 11 27 12 14 10 14 16 11 7 19 16 25 22 22 19 11 14 16 21 15 11 8 10 11 7 5 5 9 12 15 11 10 10 10 8 9 6 0 2 11 5 11 7 1
0 0 0 0 0 0 0 7 0 4 6 7 6 5 9 9 5 0 6 13 26 26 11 11 15 10 13 7 7 9 7 4 8 10 13 12 9 12 8 8 11 12 9 3 2 4 6 0 4 9 11 7 9 13
0 1 0 1 1 2 2 1 3 3 4 2 2 2 3 8 2 5 9 17 25 13 14 21 11 6 6 2 6 4 5 4 7 15 9 0 0 0 0 0 0 2 5 2 3 7 5 11 1 5 6 3 1 4
0 0 0 0 4 0 1 2 6 3 4 3 2 4 7 4 4 6 8 19 18 24 20 10 13 8 10 7 9 1 1 0 0 0 1 0 5 1 0 0 0 0 2 8 7 2 3 9 5 4 4 1 0 1
0 2 1 3 1 1 2 2 2 4 3 3 5 5 8 3 1 4 12 22 13 12 18 28 13 3 1 1 1 1 0 0 0 0 0 0 0 1 1 0 0 1 4 7 2 1 0 2 1 0 1 0 0 0
1 4 3 2 4 2 6 9 3 2 4 6 6 4 2 0 2 6 13 14 8 14 7 9 7 4 2 3 2 2 0 0 0 0 0 0 0 1 0 0 0 0 1 0 0 1 0 0 0 1 1 0 1 1
4 3 0 1 0 0 0 0 1 3 4 2 0 0 0 1 6 15 9 10 8 6 4 3 2 1 2 4 4 4 3 0 0 0 0 0 0 0 1 0 0 0 1 0 0 0 0 0 0 1 0 0 1 2
4 1 0 0 0 0 2 3 5 3 1 4 1 2 2 8 12 12 12 11 12 8 8 6 6 6 4 3 2 2 2 0 0 0 0 0 1 0 0 1 2 1 1 3 2 3 0 0 1 0 0 0 1 1
2 2 0 0 0 1 7 5 8 7 2 0 1 5 6 4 15 16 12 16 18 11 11 8 9 11 6 8 1 1 1 1 0 0 0 0 0 0 1 0 1 2 2 2 1 1 7 0 3 1 0 1 2 0
5 0 0 1 3 10 7 11 16 13 15 11 13 4 3 7 6 6 6 6 5 6 8 6 7 5 2 1 0 1 1 0 0 0 0 0 0 1 0 0 1 1 2 2 0 1 2 0 1 1 2 0 0 0
3 0 0 0 4 5 12 29 11 10 9 7 7 4 5 7 4 5 5 6 8 8 0 2 4 1 0 0 0 0 0 0 0 0 0 0 0 0 0 0 3 2 1 0 1 1 1 0 1 1 3 0 0 0
5 2 0 1 5 6 4 5 3 3 6 6 6 3 2 2 1 4 1 2 8 6 4 3 2 1 0 0 0 0 0 0 0 0 0 0 0 0 0 0 0 0 0 0 0 1 1 0 1 0 0 0 0 0
CIN
-0 -0 -0 -2 -1 -0 -0 -0 -0 -5 -1 -0 -0 -0 -0 -0 -0 -0 -2 -1 -5 -0 -0 -4 -17 -4 -8 -0 -0 -4 -14 -42 -12 -10 -3 -0 -3 -21 -0 -4 -27 -27 -0 -0 -0 -13 -8 -25 -21 -13 -19 -23 -10 -14
-0 -0 -0 -2 -3 -0 -4 -0 -0 -1 -0 -4 -0 -0 -0 -0 -0 -1 -1 -1 -2 -2 -6 -9 -21 -23 -1 -4 -0 -2 -1 -0 -33 -23 -0 -1 -9 -36 -5 -19 -21 -11 -4 -0 -18 -10 -16 -69 -47 -43 -25 -10 -13 -6
-0 -0 -3 -6 -2 -0 -0 -1 -10 -23 -10 -0 -0 -4 -2 -0 -1 -6 -2 -3 -12 -0 -2 -2 -59 -41 -1 -6 -17 -1 -0 -10 -6 -0 -0 -1 -1 -6 -10 -6 -32 -31 -0 -4 -0 -13 -74 -38 -15 -16 -10 -16 -12 -6
-0 -7 -11 -4 -1 -4 -2 -2 -0 -4 -4 -2 -5 -13 -0 -2 -2 -3 -2 -6 -3 -0 -0 -6 -12 -5 -9 -28 -27 -24 -44 -42 -56 -21 -5 -0 -5 -1 -21 -8 -69 -40 -44 -8 -39 -0 -0 -0 -58 -38 -23 -37 -23 -33
-5 -4 -5 -2 -0 -2 -4 -0 -1 -0 -0 -0 -0 -3 -2 -1 -2 -0 -6 -2 -5 -4 -0 -0 -1 -15 -9 -26 -1 -3 -49 -13 -19 -76 -3 -0 -2 -7 -2 -4 -10 -0 -10 -16 -30 -22 -21 -16 -6 -50 -82 -113 -27 -67
-1 -12 -7 -5 -6 -4 -2 -0 -3 -2 -1 -1 -1 -0 -0 -0 -7 -2 -0 -3 -26 -53 -1 -0 -2 -0 -0 -27 -5 -0 -12 -0 -0 -0 -0 -1 -1 -0 -5 -1 -0 -0 -1 -31 -14 -15 -18 -53 -89 -65 -100 -112 -82 -59
-2 -8 -16 -10 -4 -3 -2 -11 -8 -2 -2 -2 -0 -0 -0 -9 -7 -4 -0 -0 -10 -26 -0 -0 -0 -5 -4 -14 -2 -0 -1 -18 -0 -18 -0 -0 -0 -7 -18 -5 -3 -8 -60 -65 -26 -32 -18 -56 -71 -109 -0 -85 -0 -0
-0 -0 -0 -7 -7 -4 -0 -0 -1 -0 -0 -0 -0 -2 -12 -32 -6 -0 -3 -0 -5 -0 -0 -1 -0 -2 -18 -0 -0 -0 -0 -2 -0 -0 -1 -0 -5 -4 -5 -28 -29 -49 -89 -69 -45 -49 -90 -0 -17 -220 -0 -0 -0 -0
-0 -0 -0 -0 -12 -2 -0 -1 -0 -0 -0 -1 -3 -7 -6 -2 -0 -0 -0 -7 -3 -1 -0 -5 -3 -0 -0 -0 -0 -1 -0 -0 -1 -0 -0 -2 -3 -6 -0 -0 -0 -0 -0 -0 -0 -0 -0 -0 -0 -0 -0 -0 -0 -0
-0 -0 -0 -0 -0 -0 -0 -1 -0 -1 -6 -6 -1 -0 -0 -0 -1 -0 -4 -0 -0 -0 -0 -0 -0 -0 -0 -0 -0 -1 -4 -4 -0 -1 -1 -1 -0 -0 -0 -0 -0 -0 -0 -0 -0 -0 -0 -0 -0 -0 -0 -0 -0 -0
-1 -2 -0 -0 -0 -0 -1 -3 -4 -8 -24 -4 -0 -2 -0 -22 -0 -0 -0 -0 -0 -0 -0 -0 -0 -0 -0 -0 -18 -0 -2 -3 -0 -1 -2 -1 -1 -0 -0 -0 -0 -0 -0 -0 -0 -0 -0 -0 -0 -0 -0 -0 -0 -0
-0 -0 -0 -0 -0 -0 -3 -5 -11 -0 -1 -0 -0 -3 -2 -0 -0 -3 -0 -2 -0 -0 -1 -0 -0 -0 -0 -0 -45 -0 -0 -0 -25 -3 -15 -0 -0 -0 -0 -0 -0 -0 -0 -0 -0 -0 -0 -0 -0 -0 -0 -0 -0 -0
-6 -5 -4 -3 -3 -8 -12 -2 -0 -0 -5 -0 -0 -0 -0 -0 -1 -1 -5 -0 -0 -0 -0 -0 -0 -0 -0 -0 -0 -0 -0 -0 -0 -0 -0 -0 -0 -0 -0 -0 -0 -0 -0 -0 -0 -0 -0 -0 -0 -0 -0 -0 -0 -0
-2 -3 -1 -11 -24 -0 -0 -0 -0 -0 -7 -0 -11 -0 -0 -0 -0 -0 -0 -0 -0 -0 -0 -0 -0 -0 -0 -0 -0 -0 -0 -0 -0 -0 -0 -0 -0 -0 -0 -0 -0 -0 -0 -0 -0 -0 -0 -0 -0 -0 -0 -0 -0 -0
-0 -0 -7 -14 -0 -0 -0 -0 -0 -0 -0 -0 -0 -0 -0 -0 -0 -0 -0 -0 -0 -0 -0 -0 -0 -0 -0 -0 -0 -0 -0 -0 -0 -0 -0 -0 -0 -0 -0 -0 -0 -0 -0 -0 -0 -0 -0 -0 -0 -0 -0 -0 -0 -0
-7 -4 -1 -7 -8 -0 -0 -0 -0 -0 -0 -0 -0 -0 -0 -0 -0 -0 -0 -0 -0 -0 -0 -0 -0 -0 -0 -0 -0 -0 -0 -0 -0 -0 -0 -0 -0 -0 -0 -0 -0 -0 -0 -0 -0 -0 -0 -0 -0 -0 -0 -0 -0 -0
-0 -0 -0 -0 -0 -0 -0 -0 -0 -0 -0 -0 -0 -0 -0 -0 -0 -0 -0 -0 -0 -0 -0 -0 -0 -0 -0 -0 -0 -0 -0 -0 -0 -0 -0 -0 -0 -0 -0 -0 -0 -0 -0 -0 -0 -0 -0 -0 -0 -0 -0 -0 -0 -0
-0 -0 -0 -0 -0 -0 -0 -0 -0 -0 -0 -0 -0 -0 -0 -0 -0 -0 -0 -0 -0 -0 -0 -0 -0 -0 -0 -0 -0 -0 -0 -0 -0 -0 -0 -0 -0 -0 -0 -0 -0 -0 -0 -0 -0 -0 -0 -0 -0 -0 -0 -0 -0 -0
-0 -0 -0 -0 -0 -1 -0 -0 -0 -0 -0 -0 -0 -0 -0 -0 -0 -0 -0 -0 -0 -0 -0 -0 -0 -0 -0 -0 -0 -0 -0 -0 -0 -0 -0 -0 -0 -0 -0 -0 -0 -0 -0 -0 -0 -0 -0 -0 -0 -0 -0 -0 -0 -0
-0 -0 -0 -0 -0 -0 -0 -0 -0 -0 -0 -0 -0 -0 -0 -0 -0 -0 -0 -0 -0 -0 -0 -0 -0 -0 -0 -0 -0 -0 -0 -0 -0 -0 -0 -0 -0 -0 -0 -0 -0 -0 -0 -0 -0 -0 -0 -0 -0 -0 -0 -0 -0 -0
-0 -0 -0 -0 -0 -0 -0 -0 -0 -0 -0 -0 -0 -0 -0 -0 -0 -0 -0 -0 -0 -0 -0 -0 -0 -0 -0 -0 -0 -0 -0 -0 -0 -0 -0 -0 -0 -0 -0 -0 -0 -0 -0 -0 -0 -0 -0 -0 -0 -0 -0 -0 -0 -0
-0 -0 -0 -0 -0 -0 -0 -8 -0 -0 -0 -0 -0 -0 -0 -0 -0 -0 -0 -0 -0 -0 -0 -0 -0 -0 -0 -0 -0 -0 -0 -0 -0 -0 -0 -0 -0 -0 -0 -0 -0 -0 -0 -0 -0 -0 -0 -0 -0 -0 -0 -0 -0 -0
-0 -0 -0 -0 -0 -0 -0 -0 -0 -0 -0 -0 -0 -0 -0 -0 -0 -0 -0 -0 -0 -0 -0 -0 -0 -0 -0 -0 -0 -0 -0 -0 -0 -0 -0 -0 -0 -0 -0 -0 -0 -0 -0 -0 -0 -0 -0 -0 -0 -0 -0 -0 -0 -0
-0 -0 -0 -0 -0 -0 -0 -0 -0 -0 -0 -0 -0 -0 -0 -0 -0 -0 -0 -0 -0 -0 -0 -0 -0 -0 -0 -0 -0 -0 -0 -0 -0 -0 -0 -0 -0 -0 -0 -0 -0 -0 -0 -0 -0 -0 -0 -0 -0 -0 -0 -0 -0 -0
-0 -0 -0 -0 -0 -0 -0 -0 -0 -0 -0 -0 -0 -0 -0 -0 -0 -0 -0 -0 -0 -0 -0 -0 -0 -0 -0 -0 -0 -0 -1 -0 -0 -0 -0 -0 -0 -0 -0 -0 -0 -0 -0 -0 -0 -0 -0 -0 -0 -0 -0 -0 -0 -0
-0 -0 -0 -0 -0 -0 -0 -0 -0 -0 -0 -0 -0 -0 -0 -0 -0 -0 -0 -0 -0 -0 -0 -0 -0 -0 -0 -0 -0 -0 -0 -0 -0 -0 -0 -0 -0 -0 -0 -0 -0 -0 -0 -0 -0 -0 -0 -0 -0 -0 -0 -0 -0 -0
-0 -0 -0 -0 -0 -0 -0 -0 -0 -0 -0 -0 -0 -0 -0 -0 -0 -0 -0 -0 -0 -0 -0 -0 -0 -0 -0 -0 -0 -0 -0 -0 -0 -0 -0 -0 -0 -0 -0 -0 -0 -0 -0 -0 -0 -0 -0 -0 -0 -0 -0 -0 -0 -0
-0 -0 -0 -0 -0 -0 -0 -0 -0 -0 -0 -0 -0 -0 -0 -0 -0 -0 -0 -0 -0 -0 -0 -0 -0 -0 -1 -0 -0 -0 -0 -0 -0 -0 -0 -0 -0 -0 -0 -0 -0 -0 -0 -0 -0 -0 -0 -0 -0 -0 -0 -0 -0 -0
-0 -0 -0 -0 -0 -0 -0 -0 -0 -0 -0 -0 -0 -0 -0 -0 -0 -0 -0 -0 -0 -0 -0 -0 -0 -0 -0 -0 -0 -0 -0 -0 -0 -0 -0 -0 -0 -0 -0 -0 -0 -0 -0 -0 -0 -0 -0 -0 -0 -0 -0 -0 -0 -0
-0 -0 -0 -0 -0 -0 -0 -0 -0 -0 -0 -0 -0 -0 -0 -0 -0 -0 -0 -0 -0 -0 -0 -0 -0 -0 -0 -0 -0 -0 -0 -0 -0 -0 -0 -0 -0 -0 -0 -0 -0 -0 -0 -0 -0 -0 -0 -0 -0 -0 -0 -0 -0 -0
-0 -0 -0 -0 -0 -0 -0 -0 -0 -0 -0 -0 -0 -0 -0 -0 -0 -0 -0 -0 -0 -0 -0 -0 -0 -0 -0 -0 -0 -0 -0 -0 -0 -0 -0 -0 -0 -0 -0 -0 -0 -0 -0 -0 -0 -0 -0 -0 -0 -0 -0 -0 -0 -0
-0 -0 -0 -0 -0 -0 -0 -0 -0 -0 -0 -0 -0 -0 -0 -0 -0 -0 -0 -0 -0 -0 -0 -0 -0 -0 -0 -0 -0 -0 -0 -0 -0 -0 -0 -0 -0 -0 -0 -0 -0 -0 -0 -0 -0 -0 -0 -0 -0 -0 -0 -1 -0 -0
-0 -0 -0 -0 -0 -0 -0 -0 -0 -0 -0 -0 -0 -0 -0 -0 -0 -0 -0 -0 -0 -0 -0 -0 -0 -0 -0 -0 -0 -0 -0 -0 -0 -0 -0 -0 -0 -0 -0 -0 -0 -0 -0 -0 -0 -0 -0 -0 -0 -0 -0 -0 -0 -0
Wind_Speed
23 24 24 22 22 23 22 20 20 17 19 29 29 33 33 34 32 17 9 19 13 2 11 10 9 12 15 18 15 13 6 4 8 12 12 9 6 9 12 10 8 8 3 5 7 9 13 6 11 17 10 6 5 8
22 23 22 20 17 16 7 13 16 15 23 28 29 29 31 32 31 20 5 13 9 1 2 5 4 6 13 17 12 12 13 14 4 5 6 6 3 4 6 4 6 4 9 4 6 2 5 7 15 10 6 5 7 5
23 18 13 11 10 6 6 10 7 19 24 26 28 29 28 31 33 14 8 10 4 4 2 2 7 8 10 14 9 9 11 9 7 16 5 3 3 3 3 7 5 12 9 7 2 10 16 2 11 14 11 9 11 7
15 8 9 9 10 8 9 13 18 21 25 27 28 29 29 30 30 11 9 9 7 6 3 4 4 12 7 5 10 5 6 1 1 6 6 3 4 6 5 5 7 7 17 16 12 12 13 27 11 8 10 12 3 4
11 5 9 10 12 13 14 15 19 23 26 29 29 28 28 32 22 7 8 6 1 5 3 2 4 8 4 6 7 2 5 8 4 2 4 5 5 2 2 5 6 9 11 7 6 5 2 12 11 9 8 13 10 4
8 7 10 11 14 15 17 17 18 21 25 26 30 31 29 23 17 8 4 3 2 3 2 5 2 5 7 5 11 8 9 13 7 6 9 5 6 4 3 6 10 11 7 7 7 5 4 5 9 6 5 7 16 6
10 11 12 12 15 16 18 20 18 23 23 29 33 24 26 21 8 4 2 7 5 3 3 2 3 3 5 9 8 7 8 2 3 2 4 5 7 7 3 6 8 9 8 9 8 9 7 4 5 10 6 7 6 6
16 16 15 15 17 18 22 24 25 28 28 33 25 20 22 14 9 9 7 8 4 4 2 1 2 1 4 4 5 5 4 2 4 3 2 5 4 1 3 10 8 9 12 12 10 6 6 5 6 7 5 5 4 4
18 20 22 21 22 22 26 28 28 28 31 30 26 17 7 5 3 4 6 5 1 1 3 1 1 3 8 5 4 5 5 5 3 3 2 1 4 2 10 15 17 17 12 13 12 8 7 6 7 5 5 5 6 1
20 20 22 25 27 31 28 29 28 27 22 14 6 4 4 2 13 8 2 3 3 3 2 2 3 2 2 3 2 5 3 3 4 5 4 4 4 8 15 14 13 16 18 14 10 12 14 12 7 4 5 5 6 6
20 21 21 23 25 26 25 23 23 17 8 1 3 4 7 3 1 1 3 3 3 2 4 3 5 5 2 4 3 2 4 5 4 5 7 5 5 12 16 14 12 14 14 14 14 14 15 12 6 6 9 16 16 18
19 21 23 22 23 22 19 14 10 1 4 3 9 6 2 2 3 2 3 1 3 3 3 4 5 6 4 9 4 4 3 2 5 5 5 4 6 13 13 13 13 13 12 13 14 14 16 18 16 16 14 14 15 16
18 19 20 20 16 15 12 11 11 9 3 3 3 4 1 2 3 3 5 2 1 5 5 3 3 2 3 4 3 4 3 3 1 4 5 6 12 11 11 10 12 12 13 13 15 15 16 17 17 17 15 13 16 17
16 18 18 17 15 13 14 14 13 7 5 4 3 4 5 5 6 5 5 4 3 3 6 5 1 0 1 3 3 4 1 2 4 5 6 8 11 11 10 10 11 14 15 16 16 16 17 18 19 18 17 15 16 17
19 18 14 13 13 13 11 9 9 5 5 6 7 6 7 5 5 6 5 2 4 5 4 2 3 3 5 5 5 3 4 7 8 6 4 8 11 11 12 12 12 13 13 14 15 15 17 17 17 18 17 16 18 17
17 13 7 10 10 11 12 8 6 5 5 5 9 4 8 4 7 7 7 6 6 7 3 2 3 4 7 5 6 9 5 7 6 5 6 8 11 11 11 12 13 13 14 14 15 16 16 17 17 17 18 17 16 16
4 4 6 12 13 11 12 4 5 9 7 5 4 7 5 3 7 6 6 6 4 3 3 3 7 7 4 5 6 6 5 6 8 8 8 11 11 12 12 14 14 14 15 15 15 16 15 14 15 16 17 14 14 14
5 5 11 6 3 2 5 7 6 6 8 5 5 8 7 6 7 6 6 8 3 3 4 7 5 9 8 6 4 7 8 8 8 8 9 11 12 13 12 14 13 14 15 15 15 15 14 13 13 11 12 10 10 10
8 6 6 6 4 3 5 5 4 6 3 2 5 6 5 8 11 10 8 8 10 8 6 6 8 6 6 6 8 8 8 8 8 9 10 12 12 11 12 13 14 15 15 14 14 11 11 15 12 10 9 9 9 8
15 13 10 7 7 3 5 4 3 5 3 3 4 8 9 9 8 11 12 9 9 7 9 8 6 7 5 7 7 7 8 8 8 9 9 9 9 12 13 11 10 11 11 13 12 12 10 10 9 9 9 10 8 8
6 4 4 4 4 7 5 2 4 4 4 4 4 6 7 9 14 14 12 10 13 7 7 7 8 8 10 9 9 9 11 10 9 8 9 8 8 9 9 9 10 9 9 9 9 10 11 9 8 7 7 7 7 8
1 2 2 3 4 4 4 6 4 4 4 5 6 5 5 8 9 10 10 11 9 10 9 9 9 9 11 13 12 13 12 13 12 10 11 10 9 9 9 8 8 9 9 8 8 8 7 8 7 7 7 7 6 6
2 2 3 3 5 6 4 3 4 4 3 3 3 5 5 4 5 5 7 7 7 7 9 9 12 13 12 12 12 14 12 12 9 9 8 8 8 8 8 9 8 7 7 8 8 7 7 8 7 7 7 7 7 6
4 5 5 5 6 5 2 4 3 4 4 4 4 5 5 4 4 6 6 5 6 7 8 7 7 8 9 11 10 9 8 8 8 8 7 7 7 8 8 8 8 8 8 7 7 7 7 6 7 6 6 7 7 6
5 8 4 7 4 4 4 4 4 5 5 5 4 5 4 3 4 5 5 4 5 6 6 7 7 8 8 8 7 8 9 8 7 8 8 8 6 5 7 7 8 8 7 6 6 6 6 5 6 6 6 7 8 7
8 9 6 4 4 4 4 4 4 5 4 5 6 3 3 4 5 5 4 6 7 6 6 6 6 7 8 8 7 7 7 5 7 7 8 8 7 6 5 5 5 7 7 6 6 7 7 6 6 7 7 7 6 7
6 6 5 3 3 5 6 6 7 7 6 5 4 3 2 4 5 4 5 6 6 4 6 7 7 7 7 7 7 7 7 8 7 7 6 7 7 7 7 6 6 5 6 8 7 7 7 6 6 6 6 6 6 6
6 6 6 6 7 8 6 5 6 5 4 4 3 5 4 5 4 4 4 5 6 6 6 7 8 7 7 7 6 5 4 4 5 4 6 6 6 6 6 5 3 3 4 3 4 5 6 7 7 7 6 6 5 5
6 4 5 7 8 9 9 6 5 4 5 3 3 4 4 3 5 6 6 5 5 5 5 5 5 5 5 6 6 6 6 6 5 4 4 3 2 6 5 4 5 5 5 6 5 3 4 4 5 5 5 6 6 5
4 3 6 8 7 7 6 6 6 4 6 7 7 10 10 6 5 5 4 3 4 5 5 5 3 2 3 2 4 5 6 6 6 5 5 5 5 4 4 5 5 5 5 5 6 7 6 6 8 5 3 4 4 5
3 4 6 6 6 6 7 7 7 8 9 9 8 9 8 5 3 5 5 5 5 4 4 4 3 2 2 3 4 2 4 5 4 5 5 3 2 3 5 4 5 5 5 6 6 7 6 6 6 7 7 7 7 6
5 5 6 6 5 4 6 3 3 5 5 7 6 5 5 4 4 3 2 1 2 3 3 2 3 5 5 4 4 4 3 2 3 2 3 4 5 7 6 6 6 4 5 6 6 7 7 7 6 7 8 9 9 8
8 8 8 7 5 5 2 3 3 4 3 3 3 3 5 4 4 4 2 2 4 4 4 5 5 5 4 4 4 3 2 5 4 3 4 4 4 4 5 5 6 7 7 7 7 7 8 9 8 8 9 9 10 9
Wind_Direction
298 298 299 296 293 289 267 245 255 242 231 190 191 190 187 186 181 171 200 198 191 164 181 168 198 207 228 212 212 216 181 236 232 180 203 221 232 225 232 188 161 160 259 214 226 220 240 216 230 239 235 180 262 265
300 303 301 298 307 311 264 273 241 226 194 177 181 179 180 176 168 158 189 205 174 208 14 120 141 232 269 253 234 194 200 187 167 249 202 208 264 187 173 198 141 203 176 269 312 310 302 203 257 281 286 284 286 232
306 300 301 321 334 352 10 335 191 166 168 165 165 163 166 158 161 158 164 162 112 181 37 233 191 209 234 253 237 233 194 162 180 194 229 231 211 188 198 211 176 207 198 196 262 285 305 329 273 242 260 261 240 264
328 343 4 21 40 51 65 68 112 120 134 140 146 148 153 153 156 157 160 157 212 112 135 163 159 201 220 231 93 327 334 128 164 273 213 191 198 217 207 232 190 190 170 224 210 240 291 284 291 291 309 305 300 305
344 24 49 53 65 68 84 100 110 118 121 130 136 140 140 143 153 183 149 213 182 104 154 162 175 204 215 195 195 192 299 259 144 326 246 195 201 290 269 226 235 215 225 241 258 258 288 310 337 352 356 341 280 244
29 65 78 72 90 87 91 93 101 116 125 125 127 127 132 138 115 114 86 327 315 59 36 166 126 165 210 216 201 212 229 248 181 184 216 243 217 257 239 231 241 252 263 255 247 254 238 290 322 324 312 329 320 204
64 78 85 86 88 96 97 94 103 110 124 132 126 121 130 146 162 79 114 150 137 101 242 158 138 23 260 207 200 203 233 244 261 228 261 210 232 213 261 261 299 316 312 317 343 271 227 251 312 343 329 304 305 315
61 83 76 95 101 93 102 100 97 121 109 116 122 104 90 85 83 45 56 112 182 175 27 136 130 265 263 183 202 185 190 241 233 252 273 219 277 147 239 3 3 347 312 296 336 344 0 8 323 304 321 343 1 295
53 71 79 90 103 104 110 107 102 93 100 105 107 99 53 37 76 102 31 39 4 26 146 151 262 32 328 199 168 139 171 203 258 208 258 251 185 73 13 357 1 1 358 342 338 330 327 310 308 331 334 339 296 239
61 69 81 90 95 106 106 105 106 107 114 110 76 79 89 61 112 141 72 130 171 166 136 156 107 157 321 294 124 128 138 210 210 206 166 205 83 57 14 355 352 350 349 346 359 355 349 337 313 332 344 355 346 63
83 81 82 93 99 102 101 103 105 95 60 285 67 44 82 87 310 326 129 156 162 205 175 178 189 248 157 236 120 101 148 204 200 186 187 189 80 5 357 354 357 351 347 9 15 23 14 352 7 71 58 47 52 59
89 88 93 96 100 105 108 117 148 284 42 56 107 112 147 55 78 124 148 174 223 210 137 179 205 165 197 224 136 161 168 67 194 157 100 83 30 1 357 358 6 3 18 29 37 47 46 42 45 64 65 69 69 74
102 105 105 100 80 70 62 43 27 15 247 145 90 80 73 152 210 177 159 195 104 357 8 354 298 186 216 12 93 133 138 196 21 66 70 38 2 3 8 11 24 29 39 50 53 60 66 67 61 63 70 62 73 73
107 102 90 76 70 62 50 33 24 26 35 48 42 59 10 36 40 30 352 343 357 319 326 308 212 102 289 91 39 77 62 58 82 67 69 17 10 14 24 34 40 40 43 49 51 55 60 64 63 60 60 66 71 72
108 108 94 78 70 59 53 26 54 51 51 46 14 44 44 345 35 355 332 290 6 328 323 310 35 14 22 55 16 67 58 66 30 61 37 21 24 35 41 47 53 54 54 55 55 57 59 61 65 67 66 72 74 76
123 109 63 67 64 35 22 37 23 55 61 61 40 15 348 5 12 358 353 353 4 337 327 329 27 52 47 38 46 15 61 40 56 50 36 36 43 43 52 55 57 60 61 63 62 64 65 63 64 68 65 62 66 71
99 93 100 70 56 37 14 55 46 44 39 45 75 31 6 35 357 357 337 332 306 281 51 40 45 16 53 59 61 25 41 75 67 64 57 41 48 56 56 54 53 57 61 63 65 63 65 68 70 67 67 63 66 65
69 129 105 113 355 14 51 47 66 59 49 9 29 10 6 18 3 15 15 352 2 48 31 51 24 34 28 45 47 91 87 83 74 60 48 61 57 53 55 61 60 60 60 57 55 57 57 59 62 64 72 75 76 71
108 97 66 23 356 23 63 55 73 91 83 90 52 35 16 33 17 11 20 31 35 39 75 54 44 35 49 23 53 84 84 83 87 77 65 50 53 63 67 63 59 56 56 57 58 56 53 48 46 45 52 52 48 39
75 49 28 6 341 92 82 78 52 77 75 127 133 80 56 36 43 44 34 35 44 54 54 49 41 33 49 42 27 36 94 95 97 91 77 64 55 53 50 53 58 65 62 55 49 51 56 55 52 49 47 39 50 46
50 312 345 8 43 53 69 78 88 112 142 77 104 68 70 59 46 39 47 37 43 46 73 77 77 63 56 58 57 55 55 58 67 71 80 76 65 65 65 63 60 59 59 57 56 45 40 47 40 45 53 68 44 24
117 274 25 37 70 67 62 3 77 122 75 109 76 60 68 48 48 47 46 40 63 48 55 69 71 71 66 60 66 68 73 74 74 72 65 62 60 56 51 50 57 56 54 57 58 48 53 41 18 48 32 24 69 62
256 357 35 41 81 58 46 6 57 20 73 83 61 51 48 57 48 70 71 40 58 63 70 71 74 74 78 74 69 63 62 68 71 70 68 66 67 63 60 52 45 47 54 51 47 47 55 20 48 33 35 33 19 36
36 47 31 45 51 87 77 37 44 62 47 49 58 68 43 44 88 71 68 60 54 44 44 71 94 88 75 62 52 46 58 69 69 59 63 76 75 69 64 59 48 33 31 38 48 44 32 47 19 36 41 39 15 15
68 16 2 61 38 84 75 63 34 59 52 55 65 54 44 28 63 72 78 93 57 56 54 54 69 81 86 84 75 63 44 54 66 64 31 26 48 81 103 96 70 44 23 30 30 51 39 33 29 19 33 51 17 9
74 22 30 39 44 61 61 79 65 62 67 66 54 57 20 50 65 69 70 83 72 49 27 49 78 76 61 53 64 51 24 33 85 72 52 41 29 23 41 38 54 52 30 22 20 17 37 23 31 16 18 32 48 8
65 60 44 16 67 103 99 71 59 54 50 50 56 48 65 70 75 77 85 60 87 59 41 38 58 75 83 81 72 62 57 48 53 71 69 63 52 47 44 41 39 19 8 12 13 9 8 8 11 5 17 5 21 6
53 42 66 42 58 30 73 54 43 46 57 353 65 40 50 39 74 52 90 91 94 85 70 58 50 56 59 56 55 56 74 122 143 142 126 106 82 66 47 74 80 31 353 41 12 2 359 352 352 351 9 344 347 345
65 87 78 39 58 50 31 33 63 48 329 307 79 80 91 49 89 110 106 108 114 109 101 96 92 98 96 85 60 42 33 16 16 45 28 25 48 60 34 22 6 16 1 337 358 9 28 332 330 340 330 321 323 325
63 47 91 47 53 58 35 45 83 71 70 76 92 104 99 85 56 88 116 129 109 88 85 89 89 86 72 87 91 77 58 40 25 10 10 28 34 14 352 11 350 359 344 345 338 335 323 6 318 294 281 297 324 356
76 74 73 67 78 100 123 125 101 75 64 70 80 97 115 120 85 34 52 71 91 117 125 115 105 90 94 44 14 25 118 96 70 54 16 349 6 343 16 351 335 349 324 328 336 321 328 325 318 319 316 326 318 299
40 72 116 107 117 166 214 190 92 93 109 95 96 124 168 144 108 123 102 175 176 124 46 58 140 113 79 78 87 85 35 55 66 53 20 357 356 13 354 341 321 317 325 326 311 306 308 318 311 312 307 317 327 327
103 91 103 113 136 135 158 148 105 107 80 80 65 36 36 23 84 94 130 336 358 91 112 81 84 90 88 56 50 105 217 97 89 72 75 46 9 347 318 310 327 346 335 319 315 308 308 311 312 318 315 307 305 315